Location: Dammartin
(48.9032°N, 1.6195°E)
Time: 11:02:57
(UTC+00:00)

SO-50 - Pass Details

Date: 06 December 2023
Orbit: 607 x 661 km, 64.6° (Epoch: 21 February)

Event Time Altitude Azimuth Distance (km) Brightness Sun altitude
Exits shadow 03:40:25 11° 40° (NE) 1,964 ? -36.9°
Drops below altitude 10° 03:40:39 10° 40° (NE) 2,053 ? -36.9°
Sets 03:42:56 0° 40° (NE) 2,957 ? -36.5°
